Main page
METAR-TAF:

METAR-TAF

Airports :

Nebraska City Municipal Airport

Nebraska City, Nebraska, United States

latitude: 40-36N, longitude: 095-51W, elevation: 1161 ft

Current weather observation

The report was made 19 minutes ago, at 04:35 UTC
Wind 6 mph from the West/Southwest
Temperature 68°F
Humidity 88%
Pressure 29.97 in. Hg
Visibility: 10 miles
Scattered clouds at a height of 1300 ft
Scattered clouds at a height of 2400 ft

METAR: KAFK 190435Z AUTO 24005KT 10SM SCT013 SCT024 20/18 A2997 RMK AO2 LTG DSNT SE AND SW T01960183

Time: 23:54 (04:54 UTC)


TAF: missing

Weather observations and forecasts of more than 4000 airports (METAR and TAF reports).

The available stations are represented by yellow and red dots on the map.

Hover mouse over dot to see the name of the station.

Then click to see weather observations and forecasts.

To change the map : click on the green buttons with a black cross to zoom in, on the green button with a dash to zoom out, or on the green arrows for adjacent maps.


METAR-TAF: